Location: Ladrillo (historical)
(32.8195°N, 117.2231°W)
Time: 21:09:49
(UTC+00:00)

Cosmos 44 Rocket - Pass Details

Date: 29 October 2020
Orbit: 642 x 748 km, 65.1° (Epoch: 25 November)

Event Time Altitude Azimuth Distance (km) Brightness Sun altitude
Exits shadow 12:10:28 63° 222° (SW) 829 3.4 -24.5°
Drops below altitude 10° 12:15:15 10° 164° (SSE) 2,253 6.1 -23.5°
Sets 12:17:38 0° 161° (SSE) 3,170 7.0 -23.0°
